owner,sensor,date,latitude,longitude,vertical_datum,sea_water_practical_salinity,qcFlag 
NERRS,ioos:station:NOAA.NERRS:gndbcwq:1,2014-12-01T02:00:00Z,30.3836,-88.4364,0.74,29.9,1111122 
NERRS,ioos:station:NOAA.NERRS:gndbcwq:1,2014-12-01T03:00:00Z,30.3836,-88.4364,0.76,29.9,1111122 
NERRS,ioos:station:NOAA.NERRS:gndbcwq:1,2014-12-01T04:00:00Z,30.3836,-88.4364,0.73,29.9,1111122 
NERRS,ioos:station:NOAA.NERRS:gndbcwq:1,2014-12-01T05:00:00Z,30.3836,-88.4364,0.67,29.9,1111122 
NERRS,ioos:station:NOAA.NERRS:gndbcwq:1,2014-12-01T06:00:00Z,30.3836,-88.4364,0.61,29.8,1111122 
NERRS,ioos:station:NOAA.NERRS:gndbcwq:1,2014-12-01T07:00:00Z,30.3836,-88.4364,0.58,29.7,1111122 
NERRS,ioos:station:NOAA.NERRS:gndbcwq:1,2014-12-01T08:00:00Z,30.3836,-88.4364,0.57,29.7,1111122 
NERRS,ioos:station:NOAA.NERRS:gndbcwq:1,2014-12-01T09:00:00Z,30.3836,-88.4364,0.57,29.7,1111122 
NERRS,ioos:station:NOAA.NERRS:gndbcwq:1,2014-12-01T10:00:00Z,30.3836,-88.4364,0.57,29.7,1111122 
NERRS,ioos:station:NOAA.NERRS:gndbcwq:1,2014-12-01T11:00:00Z,30.3836,-88.4364,0.55,29.7,1111122 
NERRS,ioos:station:NOAA.NERRS:gndbcwq:1,2014-12-01T12:00:00Z,30.3836,-88.4364,0.53,29.6,1111122 
NERRS,ioos:station:NOAA.NERRS:gndbcwq:1,2014-12-01T13:00:00Z,30.3836,-88.4364,0.54,29.5,1111122 
NERRS,ioos:station:NOAA.NERRS:gndbcwq:1,2014-12-01T19:00:00Z,30.3836,-88.4364,0.56,29.7,1111122 
NERRS,ioos:station:NOAA.NERRS:gndbcwq:1,2014-12-01T20:00:00Z,30.3836,-88.4364,0.58,29.7,1111122 
NERRS,ioos:station:NOAA.NERRS:gndbcwq:1,2014-12-01T21:00:00Z,30.3836,-88.4364,0.61,29.7,1111122 
NERRS,ioos:station:NOAA.NERRS:gndbcwq:1,2014-12-01T22:00:00Z,30.3836,-88.4364,0.65,29.8,1111122 
NERRS,ioos:station:NOAA.NERRS:gndbcwq:1,2014-12-01T23:00:00Z,30.3836,-88.4364,0.67,29.8,1111122 
NERRS,ioos:station:NOAA.NERRS:gndbcwq:1,2014-12-02T00:00:00Z,30.3836,-88.4364,0.69,29.8,1111122 
NERRS,ioos:station:NOAA.NERRS:gndbcwq:1,2014-12-02T01:00:00Z,30.3836,-88.4364,0.7,29.8,1111122 
NERRS,ioos:station:NOAA.NERRS:gndbcwq:1,2014-12-02T02:00:00Z,30.3836,-88.4364,0.72,29.8,1111122 
NERRS,ioos:station:NOAA.NERRS:gndbcwq:1,2014-12-02T03:00:00Z,30.3836,-88.4364,0.74,29.9,1111122 
NERRS,ioos:station:NOAA.NERRS:gndbcwq:1,2014-12-02T04:00:00Z,30.3836,-88.4364,0.73,29.9,1111122 
NERRS,ioos:station:NOAA.NERRS:gndbcwq:1,2014-12-02T05:00:00Z,30.3836,-88.4364,0.66,29.8,1111122 
NERRS,ioos:station:NOAA.NERRS:gndbcwq:1,2014-12-02T06:00:00Z,30.3836,-88.4364,0.59,29.7,1111122 
NERRS,ioos:station:NOAA.NERRS:gndbcwq:1,2014-12-02T07:00:00Z,30.3836,-88.4364,0.53,29.7,1111122 
NERRS,ioos:station:NOAA.NERRS:gndbcwq:1,2014-12-02T08:00:00Z,30.3836,-88.4364,0.52,29.6,1111122 
NERRS,ioos:station:NOAA.NERRS:gndbcwq:1,2014-12-02T09:00:00Z,30.3836,-88.4364,0.51,29.6,1111122 
NERRS,ioos:station:NOAA.NERRS:gndbcwq:1,2014-12-02T10:00:00Z,30.3836,-88.4364,0.53,29.6,1111122 
NERRS,ioos:station:NOAA.NERRS:gndbcwq:1,2014-12-02T11:00:00Z,30.3836,-88.4364,0.53,29.6,1111122 
NERRS,ioos:station:NOAA.NERRS:gndbcwq:1,2014-12-02T12:00:00Z,30.3836,-88.4364,0.51,29.6,1111122 
NERRS,ioos:station:NOAA.NERRS:gndbcwq:1,2014-12-02T13:00:00Z,30.3836,-88.4364,0.51,29.6,1111122 
NERRS,ioos:station:NOAA.NERRS:gndbcwq:1,2014-12-02T14:00:00Z,30.3836,-88.4364,0.55,29.6,1111122 
NERRS,ioos:station:NOAA.NERRS:gndbcwq:1,2014-12-02T15:00:00Z,30.3836,-88.4364,0.57,29.6,1111122 
NERRS,ioos:station:NOAA.NERRS:gndbcwq:1,2014-12-02T16:00:00Z,30.3836,-88.4364,0.62,29.7,1111122 
NERRS,ioos:station:NOAA.NERRS:gndbcwq:1,2014-12-02T17:00:00Z,30.3836,-88.4364,0.65,29.8,1111122 
NERRS,ioos:station:NOAA.NERRS:gndbcwq:1,2014-12-02T18:00:00Z,30.3836,-88.4364,0.66,29.8,1111122 
NERRS,ioos:station:NOAA.NERRS:gndbcwq:1,2014-12-02T19:00:00Z,30.3836,-88.4364,0.64,29.8,1111122 
NERRS,ioos:station:NOAA.NERRS:gndbcwq:1,2014-12-02T20:00:00Z,30.3836,-88.4364,0.68,29.8,1111122 
NERRS,ioos:station:NOAA.NERRS:gndbcwq:1,2014-12-02T21:00:00Z,30.3836,-88.4364,0.74,29.9,1111122 
NERRS,ioos:station:NOAA.NERRS:gndbcwq:1,2014-12-02T22:00:00Z,30.3836,-88.4364,0.78,29.9,1111122 
NERRS,ioos:station:NOAA.NERRS:gndbcwq:1,2014-12-02T23:00:00Z,30.3836,-88.4364,0.81,29.6,1111122 
NERRS,ioos:station:NOAA.NERRS:gndbcwq:1,2014-12-03T00:00:00Z,30.3836,-88.4364,0.84,29.4,1111122 
NERRS,ioos:station:NOAA.NERRS:gndbcwq:1,2014-12-03T01:00:00Z,30.3836,-88.4364,0.85,29.3,1111122 
NERRS,ioos:station:NOAA.NERRS:gndbcwq:1,2014-12-03T02:00:00Z,30.3836,-88.4364,0.83,29.5,1111122 
NERRS,ioos:station:NOAA.NERRS:gndbcwq:1,2014-12-03T03:00:00Z,30.3836,-88.4364,0.82,29.6,1111122 
NERRS,ioos:station:NOAA.NERRS:gndbcwq:1,2014-12-03T04:00:00Z,30.3836,-88.4364,0.81,29.6,1111122 
NERRS,ioos:station:NOAA.NERRS:gndbcwq:1,2014-12-03T05:00:00Z,30.3836,-88.4364,0.77,29.6,1111122 
NERRS,ioos:station:NOAA.NERRS:gndbcwq:1,2014-12-03T06:00:00Z,30.3836,-88.4364,0.69,29.8,1111122 
NERRS,ioos:station:NOAA.NERRS:gndbcwq:1,2014-12-03T07:00:00Z,30.3836,-88.4364,0.57,29.9,1111122 
NERRS,ioos:station:NOAA.NERRS:gndbcwq:1,2014-12-03T08:00:00Z,30.3836,-88.4364,0.49,30.0,1111122 
NERRS,ioos:station:NOAA.NERRS:gndbcwq:1,2014-12-03T09:00:00Z,30.3836,-88.4364,0.42,29.6,1111122 
NERRS,ioos:station:NOAA.NERRS:gndbcwq:1,2014-12-03T10:00:00Z,30.3836,-88.4364,0.38,29.4,1111122 
NERRS,ioos:station:NOAA.NERRS:gndbcwq:1,2014-12-03T11:00:00Z,30.3836,-88.4364,0.38,29.3,1111122 
NERRS,ioos:station:NOAA.NERRS:gndbcwq:1,2014-12-03T12:00:00Z,30.3836,-88.4364,0.38,29.3,1111122 
NERRS,ioos:station:NOAA.NERRS:gndbcwq:1,2014-12-03T13:00:00Z,30.3836,-88.4364,0.39,29.2,1111122 
NERRS,ioos:station:NOAA.NERRS:gndbcwq:1,2014-12-03T14:00:00Z,30.3836,-88.4364,0.41,29.5,1111122 
NERRS,ioos:station:NOAA.NERRS:gndbcwq:1,2014-12-03T15:00:00Z,30.3836,-88.4364,0.47,29.4,1111122 
NERRS,ioos:station:NOAA.NERRS:gndbcwq:1,2014-12-03T16:00:00Z,30.3836,-88.4364,0.54,29.6,1111122 
NERRS,ioos:station:NOAA.NERRS:gndbcwq:1,2014-12-03T17:00:00Z,30.3836,-88.4364,0.59,29.7,1111122 
NERRS,ioos:station:NOAA.NERRS:gndbcwq:1,2014-12-03T18:00:00Z,30.3836,-88.4364,0.62,29.8,1111122 
NERRS,ioos:station:NOAA.NERRS:gndbcwq:1,2014-12-03T19:00:00Z,30.3836,-88.4364,0.63,29.8,1111122 
NERRS,ioos:station:NOAA.NERRS:gndbcwq:1,2014-12-03T20:00:00Z,30.3836,-88.4364,0.66,29.8,1111122 
NERRS,ioos:station:NOAA.NERRS:gndbcwq:1,2014-12-03T21:00:00Z,30.3836,-88.4364,0.69,29.8,1111122 
NERRS,ioos:station:NOAA.NERRS:gndbcwq:1,2014-12-03T22:00:00Z,30.3836,-88.4364,0.75,29.6,1111122 
NERRS,ioos:station:NOAA.NERRS:gndbcwq:1,2014-12-03T23:00:00Z,30.3836,-88.4364,0.81,28.9,1111122 
NERRS,ioos:station:NOAA.NERRS:gndbcwq:1,2014-12-04T00:00:00Z,30.3836,-88.4364,0.86,28.1,1111122 
NERRS,ioos:station:NOAA.NERRS:gndbcwq:1,2014-12-04T01:00:00Z,30.3836,-88.4364,0.88,27.5,1111122 
NERRS,ioos:station:NOAA.NERRS:gndbcwq:1,2014-12-04T02:00:00Z,30.3836,-88.4364,0.88,27.7,1111122 
NERRS,ioos:station:NOAA.NERRS:gndbcwq:1,2014-12-04T03:00:00Z,30.3836,-88.4364,0.86,28.4,1111122 
NERRS,ioos:station:NOAA.NERRS:gndbcwq:1,2014-12-04T04:00:00Z,30.3836,-88.4364,0.85,28.5,1111122 
NERRS,ioos:station:NOAA.NERRS:gndbcwq:1,2014-12-04T05:00:00Z,30.3836,-88.4364,0.82,28.6,1111122 
NERRS,ioos:station:NOAA.NERRS:gndbcwq:1,2014-12-04T06:00:00Z,30.3836,-88.4364,0.76,28.7,1111122 
NERRS,ioos:station:NOAA.NERRS:gndbcwq:1,2014-12-04T07:00:00Z,30.3836,-88.4364,0.68,29.0,1111122 
NERRS,ioos:station:NOAA.NERRS:gndbcwq:1,2014-12-04T08:00:00Z,30.3836,-88.4364,0.57,29.3,1111122 
NERRS,ioos:station:NOAA.NERRS:gndbcwq:1,2014-12-04T09:00:00Z,30.3836,-88.4364,0.49,29.6,1111122 
NERRS,ioos:station:NOAA.NERRS:gndbcwq:1,2014-12-04T10:00:00Z,30.3836,-88.4364,0.42,29.6,1111122 
NERRS,ioos:station:NOAA.NERRS:gndbcwq:1,2014-12-04T11:00:00Z,30.3836,-88.4364,0.37,29.5,1111122 
NERRS,ioos:station:NOAA.NERRS:gndbcwq:1,2014-12-04T12:00:00Z,30.3836,-88.4364,0.34,29.2,1111122 
NERRS,ioos:station:NOAA.NERRS:gndbcwq:1,2014-12-04T13:00:00Z,30.3836,-88.4364,0.35,29.2,1111122 
NERRS,ioos:station:NOAA.NERRS:gndbcwq:1,2014-12-04T14:00:00Z,30.3836,-88.4364,0.38,29.2,1111122 
NERRS,ioos:station:NOAA.NERRS:gndbcwq:1,2014-12-04T15:00:00Z,30.3836,-88.4364,0.43,29.3,1111122 
NERRS,ioos:station:NOAA.NERRS:gndbcwq:1,2014-12-04T16:00:00Z,30.3836,-88.4364,0.5,29.3,1111122 
NERRS,ioos:station:NOAA.NERRS:gndbcwq:1,2014-12-04T17:00:00Z,30.3836,-88.4364,0.56,29.5,1111122 
NERRS,ioos:station:NOAA.NERRS:gndbcwq:1,2014-12-04T18:00:00Z,30.3836,-88.4364,0.6,29.5,1111122 
NERRS,ioos:station:NOAA.NERRS:gndbcwq:1,2014-12-04T19:00:00Z,30.3836,-88.4364,0.61,29.5,1111122 
NERRS,ioos:station:NOAA.NERRS:gndbcwq:1,2014-12-04T20:00:00Z,30.3836,-88.4364,0.63,29.5,1111122 
NERRS,ioos:station:NOAA.NERRS:gndbcwq:1,2014-12-04T21:00:00Z,30.3836,-88.4364,0.67,29.4,1111122 
NERRS,ioos:station:NOAA.NERRS:gndbcwq:1,2014-12-04T22:00:00Z,30.3836,-88.4364,0.72,29.1,1111122 
NERRS,ioos:station:NOAA.NERRS:gndbcwq:1,2014-12-04T23:00:00Z,30.3836,-88.4364,0.77,28.4,1111122 
NERRS,ioos:station:NOAA.NERRS:gndbcwq:1,2014-12-05T00:00:00Z,30.3836,-88.4364,0.83,27.5,1111122 
NERRS,ioos:station:NOAA.NERRS:gndbcwq:1,2014-12-05T01:00:00Z,30.3836,-88.4364,0.88,26.9,1111122 
NERRS,ioos:station:NOAA.NERRS:gndbcwq:1,2014-12-05T02:00:00Z,30.3836,-88.4364,0.91,25.9,1111122 
NERRS,ioos:station:NOAA.NERRS:gndbcwq:1,2014-12-05T03:00:00Z,30.3836,-88.4364,0.93,25.4,1111122 
NERRS,ioos:station:NOAA.NERRS:gndbcwq:1,2014-12-05T04:00:00Z,30.3836,-88.4364,0.91,26.7,1111122 
NERRS,ioos:station:NOAA.NERRS:gndbcwq:1,2014-12-05T05:00:00Z,30.3836,-88.4364,0.87,27.8,1111122 
NERRS,ioos:station:NOAA.NERRS:gndbcwq:1,2014-12-05T07:00:00Z,30.3836,-88.4364,0.75,27.7,1111122 
NERRS,ioos:station:NOAA.NERRS:gndbcwq:1,2014-12-05T08:00:00Z,30.3836,-88.4364,0.67,27.9,1111122 
NERRS,ioos:station:NOAA.NERRS:gndbcwq:1,2014-12-05T09:00:00Z,30.3836,-88.4364,0.56,28.5,1111122 
NERRS,ioos:station:NOAA.NERRS:gndbcwq:1,2014-12-05T10:00:00Z,30.3836,-88.4364,0.48,28.8,1111122 
NERRS,ioos:station:NOAA.NERRS:gndbcwq:1,2014-12-05T11:00:00Z,30.3836,-88.4364,0.43,28.8,1111122 
NERRS,ioos:station:NOAA.NERRS:gndbcwq:1,2014-12-05T12:00:00Z,30.3836,-88.4364,0.41,28.9,1111122 
NERRS,ioos:station:NOAA.NERRS:gndbcwq:1,2014-12-05T13:00:00Z,30.3836,-88.4364,0.45,29.1,1111122 
NERRS,ioos:station:NOAA.NERRS:gndbcwq:1,2014-12-05T14:00:00Z,30.3836,-88.4364,0.48,29.0,1111122 
NERRS,ioos:station:NOAA.NERRS:gndbcwq:1,2014-12-05T15:00:00Z,30.3836,-88.4364,0.48,29.0,1111122 
NERRS,ioos:station:NOAA.NERRS:gndbcwq:1,2014-12-05T16:00:00Z,30.3836,-88.4364,0.52,29.0,1111122 
NERRS,ioos:station:NOAA.NERRS:gndbcwq:1,2014-12-05T17:00:00Z,30.3836,-88.4364,0.59,29.1,1111122 
NERRS,ioos:station:NOAA.NERRS:gndbcwq:1,2014-12-05T18:00:00Z,30.3836,-88.4364,0.65,22.2,1111122 
NERRS,ioos:station:NOAA.NERRS:gndbcwq:1,2014-12-05T19:00:00Z,30.3836,-88.4364,0.69,29.4,1111122 
NERRS,ioos:station:NOAA.NERRS:gndbcwq:1,2014-12-05T20:00:00Z,30.3836,-88.4364,0.72,29.1,1111122 
NERRS,ioos:station:NOAA.NERRS:gndbcwq:1,2014-12-05T21:00:00Z,30.3836,-88.4364,0.75,28.9,1111122 
NERRS,ioos:station:NOAA.NERRS:gndbcwq:1,2014-12-05T22:00:00Z,30.3836,-88.4364,0.8,28.0,1111122 
NERRS,ioos:station:NOAA.NERRS:gndbcwq:1,2014-12-05T23:00:00Z,30.3836,-88.4364,0.85,26.2,1111122 
NERRS,ioos:station:NOAA.NERRS:gndbcwq:1,2014-12-06T00:00:00Z,30.3836,-88.4364,0.91,25.0,1111122 
NERRS,ioos:station:NOAA.NERRS:gndbcwq:1,2014-12-06T01:00:00Z,30.3836,-88.4364,0.97,24.3,1111122 
NERRS,ioos:station:NOAA.NERRS:gndbcwq:1,2014-12-06T02:00:00Z,30.3836,-88.4364,1.01,23.5,1111122 
NERRS,ioos:station:NOAA.NERRS:gndbcwq:1,2014-12-06T03:00:00Z,30.3836,-88.4364,1.04,22.8,1111122 
NERRS,ioos:station:NOAA.NERRS:gndbcwq:1,2014-12-06T04:00:00Z,30.3836,-88.4364,1.02,22.8,1111122 
NERRS,ioos:station:NOAA.NERRS:gndbcwq:1,2014-12-06T05:00:00Z,30.3836,-88.4364,0.96,25.0,1111122 
NERRS,ioos:station:NOAA.NERRS:gndbcwq:1,2014-12-06T07:00:00Z,30.3836,-88.4364,0.83,25.4,1111122 
NERRS,ioos:station:NOAA.NERRS:gndbcwq:1,2014-12-06T08:00:00Z,30.3836,-88.4364,0.75,26.2,1111122 
NERRS,ioos:station:NOAA.NERRS:gndbcwq:1,2014-12-06T09:00:00Z,30.3836,-88.4364,0.64,26.9,1111122 
NERRS,ioos:station:NOAA.NERRS:gndbcwq:1,2014-12-06T10:00:00Z,30.3836,-88.4364,0.52,27.7,1111122 
NERRS,ioos:station:NOAA.NERRS:gndbcwq:1,2014-12-06T11:00:00Z,30.3836,-88.4364,0.43,28.2,1111122 
NERRS,ioos:station:NOAA.NERRS:gndbcwq:1,2014-12-06T12:00:00Z,30.3836,-88.4364,0.36,28.2,1111122 
NERRS,ioos:station:NOAA.NERRS:gndbcwq:1,2014-12-06T13:00:00Z,30.3836,-88.4364,0.33,29.1,1111122 
NERRS,ioos:station:NOAA.NERRS:gndbcwq:1,2014-12-06T14:00:00Z,30.3836,-88.4364,0.35,29.0,1111122 
NERRS,ioos:station:NOAA.NERRS:gndbcwq:1,2014-12-06T15:00:00Z,30.3836,-88.4364,0.38,28.5,1111122 
NERRS,ioos:station:NOAA.NERRS:gndbcwq:1,2014-12-06T16:00:00Z,30.3836,-88.4364,0.42,28.6,1111122 
NERRS,ioos:station:NOAA.NERRS:gndbcwq:1,2014-12-06T17:00:00Z,30.3836,-88.4364,0.46,28.8,1111122 
NERRS,ioos:station:NOAA.NERRS:gndbcwq:1,2014-12-06T18:00:00Z,30.3836,-88.4364,0.5,28.6,1111122 
NERRS,ioos:station:NOAA.NERRS:gndbcwq:1,2014-12-06T19:00:00Z,30.3836,-88.4364,0.55,28.5,1111122 
NERRS,ioos:station:NOAA.NERRS:gndbcwq:1,2014-12-06T20:00:00Z,30.3836,-88.4364,0.58,28.4,1111122 
NERRS,ioos:station:NOAA.NERRS:gndbcwq:1,2014-12-06T21:00:00Z,30.3836,-88.4364,0.63,28.3,1111122 
NERRS,ioos:station:NOAA.NERRS:gndbcwq:1,2014-12-06T22:00:00Z,30.3836,-88.4364,0.68,27.9,1111122 
NERRS,ioos:station:NOAA.NERRS:gndbcwq:1,2014-12-06T23:00:00Z,30.3836,-88.4364,0.73,26.4,1111122 
NERRS,ioos:station:NOAA.NERRS:gndbcwq:1,2014-12-07T00:00:00Z,30.3836,-88.4364,0.77,26.2,1111122 
NERRS,ioos:station:NOAA.NERRS:gndbcwq:1,2014-12-07T01:00:00Z,30.3836,-88.4364,0.83,25.8,1111122 
NERRS,ioos:station:NOAA.NERRS:gndbcwq:1,2014-12-07T02:00:00Z,30.3836,-88.4364,0.87,24.4,1111122 
NERRS,ioos:station:NOAA.NERRS:gndbcwq:1,2014-12-07T03:00:00Z,30.3836,-88.4364,0.88,24.8,1111122 
NERRS,ioos:station:NOAA.NERRS:gndbcwq:1,2014-12-07T04:00:00Z,30.3836,-88.4364,0.84,26.1,1111122 
NERRS,ioos:station:NOAA.NERRS:gndbcwq:1,2014-12-07T05:00:00Z,30.3836,-88.4364,0.76,25.9,1111122 
NERRS,ioos:station:NOAA.NERRS:gndbcwq:1,2014-12-07T06:00:00Z,30.3836,-88.4364,0.71,26.4,1111122 
NERRS,ioos:station:NOAA.NERRS:gndbcwq:1,2014-12-07T07:00:00Z,30.3836,-88.4364,0.64,26.9,1111122 
NERRS,ioos:station:NOAA.NERRS:gndbcwq:1,2014-12-07T08:00:00Z,30.3836,-88.4364,0.52,27.7,1111122 
NERRS,ioos:station:NOAA.NERRS:gndbcwq:1,2014-12-07T09:00:00Z,30.3836,-88.4364,0.44,28.1,1111122 
NERRS,ioos:station:NOAA.NERRS:gndbcwq:1,2014-12-07T10:00:00Z,30.3836,-88.4364,0.38,28.2,1111122 
NERRS,ioos:station:NOAA.NERRS:gndbcwq:1,2014-12-07T11:00:00Z,30.3836,-88.4364,0.31,28.3,1111122 
NERRS,ioos:station:NOAA.NERRS:gndbcwq:1,2014-12-07T12:00:00Z,30.3836,-88.4364,0.25,28.4,1111122 
NERRS,ioos:station:NOAA.NERRS:gndbcwq:1,2014-12-07T13:00:00Z,30.3836,-88.4364,0.21,28.5,1111122 
NERRS,ioos:station:NOAA.NERRS:gndbcwq:1,2014-12-07T14:00:00Z,30.3836,-88.4364,0.27,29.1,1111122 
NERRS,ioos:station:NOAA.NERRS:gndbcwq:1,2014-12-07T15:00:00Z,30.3836,-88.4364,0.29,29.0,1111122 
NERRS,ioos:station:NOAA.NERRS:gndbcwq:1,2014-12-07T16:00:00Z,30.3836,-88.4364,0.3,29.0,1111122 
NERRS,ioos:station:NOAA.NERRS:gndbcwq:1,2014-12-07T17:00:00Z,30.3836,-88.4364,0.34,28.9,1111122 
NERRS,ioos:station:NOAA.NERRS:gndbcwq:1,2014-12-07T18:00:00Z,30.3836,-88.4364,0.41,28.8,1111122 
NERRS,ioos:station:NOAA.NERRS:gndbcwq:1,2014-12-07T19:00:00Z,30.3836,-88.4364,0.48,28.6,1111122 
NERRS,ioos:station:NOAA.NERRS:gndbcwq:1,2014-12-07T20:00:00Z,30.3836,-88.4364,0.56,28.3,1111122 
NERRS,ioos:station:NOAA.NERRS:gndbcwq:1,2014-12-07T21:00:00Z,30.3836,-88.4364,0.58,28.3,1111122 
NERRS,ioos:station:NOAA.NERRS:gndbcwq:1,2014-12-07T22:00:00Z,30.3836,-88.4364,0.63,27.9,1111122 
NERRS,ioos:station:NOAA.NERRS:gndbcwq:1,2014-12-07T23:00:00Z,30.3836,-88.4364,0.68,27.3,1111122 
NERRS,ioos:station:NOAA.NERRS:gndbcwq:1,2014-12-08T00:00:00Z,30.3836,-88.4364,0.72,26.5,1111122 
NERRS,ioos:station:NOAA.NERRS:gndbcwq:1,2014-12-08T01:00:00Z,30.3836,-88.4364,0.77,25.8,1111122 
NERRS,ioos:station:NOAA.NERRS:gndbcwq:1,2014-12-08T02:00:00Z,30.3836,-88.4364,0.82,25.8,1111122 
NERRS,ioos:station:NOAA.NERRS:gndbcwq:1,2014-12-08T03:00:00Z,30.3836,-88.4364,0.86,25.9,1111122 
NERRS,ioos:station:NOAA.NERRS:gndbcwq:1,2014-12-08T04:00:00Z,30.3836,-88.4364,0.88,26.1,1111122 
NERRS,ioos:station:NOAA.NERRS:gndbcwq:1,2014-12-08T05:00:00Z,30.3836,-88.4364,0.85,26.1,1111122 
NERRS,ioos:station:NOAA.NERRS:gndbcwq:1,2014-12-08T06:00:00Z,30.3836,-88.4364,0.8,26.1,1111122 
NERRS,ioos:station:NOAA.NERRS:gndbcwq:1,2014-12-08T07:00:00Z,30.3836,-88.4364,0.74,26.1,1111122 
NERRS,ioos:station:NOAA.NERRS:gndbcwq:1,2014-12-08T08:00:00Z,30.3836,-88.4364,0.69,26.5,1111122 
NERRS,ioos:station:NOAA.NERRS:gndbcwq:1,2014-12-08T09:00:00Z,30.3836,-88.4364,0.61,27.1,1111122 
NERRS,ioos:station:NOAA.NERRS:gndbcwq:1,2014-12-08T10:00:00Z,30.3836,-88.4364,0.52,27.6,1111122 
NERRS,ioos:station:NOAA.NERRS:gndbcwq:1,2014-12-08T11:00:00Z,30.3836,-88.4364,0.42,28.0,1111122 
NERRS,ioos:station:NOAA.NERRS:gndbcwq:1,2014-12-08T12:00:00Z,30.3836,-88.4364,0.35,28.3,1111122 
NERRS,ioos:station:NOAA.NERRS:gndbcwq:1,2014-12-08T13:00:00Z,30.3836,-88.4364,0.32,28.5,1111122 
NERRS,ioos:station:NOAA.NERRS:gndbcwq:1,2014-12-08T14:00:00Z,30.3836,-88.4364,0.33,28.6,1111122 
NERRS,ioos:station:NOAA.NERRS:gndbcwq:1,2014-12-08T15:00:00Z,30.3836,-88.4364,0.36,28.6,1111122 
NERRS,ioos:station:NOAA.NERRS:gndbcwq:1,2014-12-08T16:00:00Z,30.3836,-88.4364,0.39,28.6,1111122 
NERRS,ioos:station:NOAA.NERRS:gndbcwq:1,2014-12-08T17:00:00Z,30.3836,-88.4364,0.38,28.6,1111122 
NERRS,ioos:station:NOAA.NERRS:gndbcwq:1,2014-12-08T18:00:00Z,30.3836,-88.4364,0.42,28.6,1111122 
NERRS,ioos:station:NOAA.NERRS:gndbcwq:1,2014-12-08T19:00:00Z,30.3836,-88.4364,0.47,28.3,1111122 
NERRS,ioos:station:NOAA.NERRS:gndbcwq:1,2014-12-08T20:00:00Z,30.3836,-88.4364,0.51,28.0,1111122 
NERRS,ioos:station:NOAA.NERRS:gndbcwq:1,2014-12-08T21:00:00Z,30.3836,-88.4364,0.56,27.8,1111122 
NERRS,ioos:station:NOAA.NERRS:gndbcwq:1,2014-12-08T22:00:00Z,30.3836,-88.4364,0.62,27.2,1111122 
NERRS,ioos:station:NOAA.NERRS:gndbcwq:1,2014-12-08T23:00:00Z,30.3836,-88.4364,0.66,27.1,1111122 
NERRS,ioos:station:NOAA.NERRS:gndbcwq:1,2014-12-09T00:00:00Z,30.3836,-88.4364,0.7,26.9,1111122 
NERRS,ioos:station:NOAA.NERRS:gndbcwq:1,2014-12-09T01:00:00Z,30.3836,-88.4364,0.75,26.8,1111122 
NERRS,ioos:station:NOAA.NERRS:gndbcwq:1,2014-12-09T02:00:00Z,30.3836,-88.4364,0.8,26.7,1111122 
NERRS,ioos:station:NOAA.NERRS:gndbcwq:1,2014-12-09T03:00:00Z,30.3836,-88.4364,0.84,26.9,1111122 
NERRS,ioos:station:NOAA.NERRS:gndbcwq:1,2014-12-09T04:00:00Z,30.3836,-88.4364,0.86,27.7,1111122 
NERRS,ioos:station:NOAA.NERRS:gndbcwq:1,2014-12-09T05:00:00Z,30.3836,-88.4364,0.86,27.7,1111122 
NERRS,ioos:station:NOAA.NERRS:gndbcwq:1,2014-12-09T06:00:00Z,30.3836,-88.4364,0.81,27.8,1111122 
NERRS,ioos:station:NOAA.NERRS:gndbcwq:1,2014-12-09T07:00:00Z,30.3836,-88.4364,0.76,27.1,1111122 
NERRS,ioos:station:NOAA.NERRS:gndbcwq:1,2014-12-09T08:00:00Z,30.3836,-88.4364,0.7,27.0,1111122 
NERRS,ioos:station:NOAA.NERRS:gndbcwq:1,2014-12-09T09:00:00Z,30.3836,-88.4364,0.64,27.3,1111122 
NERRS,ioos:station:NOAA.NERRS:gndbcwq:1,2014-12-09T10:00:00Z,30.3836,-88.4364,0.56,27.6,1111122 
NERRS,ioos:station:NOAA.NERRS:gndbcwq:1,2014-12-09T11:00:00Z,30.3836,-88.4364,0.45,27.9,1111122 
NERRS,ioos:station:NOAA.NERRS:gndbcwq:1,2014-12-09T12:00:00Z,30.3836,-88.4364,0.36,28.1,1111122 
NERRS,ioos:station:NOAA.NERRS:gndbcwq:1,2014-12-09T13:00:00Z,30.3836,-88.4364,0.27,28.2,1111122 
NERRS,ioos:station:NOAA.NERRS:gndbcwq:1,2014-12-09T14:00:00Z,30.3836,-88.4364,0.22,28.3,1111122 
NERRS,ioos:station:NOAA.NERRS:gndbcwq:1,2014-12-09T15:00:00Z,30.3836,-88.4364,0.2,28.4,1111122 
NERRS,ioos:station:NOAA.NERRS:gndbcwq:1,2014-12-09T16:00:00Z,30.3836,-88.4364,0.22,28.6,1111122 
NERRS,ioos:station:NOAA.NERRS:gndbcwq:1,2014-12-09T17:00:00Z,30.3836,-88.4364,0.28,28.6,1111122 
NERRS,ioos:station:NOAA.NERRS:gndbcwq:1,2014-12-09T18:00:00Z,30.3836,-88.4364,0.36,28.5,1111122 
NERRS,ioos:station:NOAA.NERRS:gndbcwq:1,2014-12-09T19:00:00Z,30.3836,-88.4364,0.38,28.5,1111122 
NERRS,ioos:station:NOAA.NERRS:gndbcwq:1,2014-12-09T20:00:00Z,30.3836,-88.4364,0.36,28.4,1111122 
NERRS,ioos:station:NOAA.NERRS:gndbcwq:1,2014-12-09T21:00:00Z,30.3836,-88.4364,0.39,28.4,1111122 
NERRS,ioos:station:NOAA.NERRS:gndbcwq:1,2014-12-09T22:00:00Z,30.3836,-88.4364,0.45,28.2,1111122 
NERRS,ioos:station:NOAA.NERRS:gndbcwq:1,2014-12-09T23:00:00Z,30.3836,-88.4364,0.51,28.0,1111122 
NERRS,ioos:station:NOAA.NERRS:gndbcwq:1,2014-12-10T00:00:00Z,30.3836,-88.4364,0.55,27.9,1111122 
NERRS,ioos:station:NOAA.NERRS:gndbcwq:1,2014-12-10T01:00:00Z,30.3836,-88.4364,0.57,27.8,1111122 
NERRS,ioos:station:NOAA.NERRS:gndbcwq:1,2014-12-10T02:00:00Z,30.3836,-88.4364,0.58,27.8,1111122 
NERRS,ioos:station:NOAA.NERRS:gndbcwq:1,2014-12-10T03:00:00Z,30.3836,-88.4364,0.62,27.7,1111122 
NERRS,ioos:station:NOAA.NERRS:gndbcwq:1,2014-12-10T04:00:00Z,30.3836,-88.4364,0.65,27.6,1111122 
NERRS,ioos:station:NOAA.NERRS:gndbcwq:1,2014-12-10T05:00:00Z,30.3836,-88.4364,0.61,27.7,1111122 
NERRS,ioos:station:NOAA.NERRS:gndbcwq:1,2014-12-10T06:00:00Z,30.3836,-88.4364,0.56,27.8,1111122 
NERRS,ioos:station:NOAA.NERRS:gndbcwq:1,2014-12-10T07:00:00Z,30.3836,-88.4364,0.49,28.1,1111122 
NERRS,ioos:station:NOAA.NERRS:gndbcwq:1,2014-12-10T08:00:00Z,30.3836,-88.4364,0.46,28.1,1111122 
NERRS,ioos:station:NOAA.NERRS:gndbcwq:1,2014-12-10T09:00:00Z,30.3836,-88.4364,0.43,28.2,1111122 
NERRS,ioos:station:NOAA.NERRS:gndbcwq:1,2014-12-10T10:00:00Z,30.3836,-88.4364,0.39,28.3,1111122 
NERRS,ioos:station:NOAA.NERRS:gndbcwq:1,2014-12-10T11:00:00Z,30.3836,-88.4364,0.34,28.4,1111122 
NERRS,ioos:station:NOAA.NERRS:gndbcwq:1,2014-12-10T12:00:00Z,30.3836,-88.4364,0.28,28.5,1111122 
NERRS,ioos:station:NOAA.NERRS:gndbcwq:1,2014-12-10T13:00:00Z,30.3836,-88.4364,0.24,28.6,1111122 
NERRS,ioos:station:NOAA.NERRS:gndbcwq:1,2014-12-10T14:00:00Z,30.3836,-88.4364,0.23,28.7,1111122 
NERRS,ioos:station:NOAA.NERRS:gndbcwq:1,2014-12-10T15:00:00Z,30.3836,-88.4364,0.25,28.7,1111122 
NERRS,ioos:station:NOAA.NERRS:gndbcwq:1,2014-12-10T16:00:00Z,30.3836,-88.4364,0.3,28.6,1111122 
NERRS,ioos:station:NOAA.NERRS:gndbcwq:1,2014-12-10T17:00:00Z,30.3836,-88.4364,0.33,28.6,1111122 
NERRS,ioos:station:NOAA.NERRS:gndbcwq:1,2014-12-10T18:00:00Z,30.3836,-88.4364,0.34,28.6,1111122 
NERRS,ioos:station:NOAA.NERRS:gndbcwq:1,2014-12-10T19:00:00Z,30.3836,-88.4364,0.36,28.5,1111122 
NERRS,ioos:station:NOAA.NERRS:gndbcwq:1,2014-12-10T20:00:00Z,30.3836,-88.4364,0.41,28.4,1111122 
NERRS,ioos:station:NOAA.NERRS:gndbcwq:1,2014-12-10T21:00:00Z,30.3836,-88.4364,0.44,28.4,1111122 
NERRS,ioos:station:NOAA.NERRS:gndbcwq:1,2014-12-10T23:00:00Z,30.3836,-88.4364,0.48,28.1,1111122 
NERRS,ioos:station:NOAA.NERRS:gndbcwq:1,2014-12-11T00:00:00Z,30.3836,-88.4364,0.49,28.1,1111122 
NERRS,ioos:station:NOAA.NERRS:gndbcwq:1,2014-12-11T01:00:00Z,30.3836,-88.4364,0.52,28.1,1111122 
NERRS,ioos:station:NOAA.NERRS:gndbcwq:1,2014-12-11T02:00:00Z,30.3836,-88.4364,0.56,28.0,1111122 
NERRS,ioos:station:NOAA.NERRS:gndbcwq:1,2014-12-11T03:00:00Z,30.3836,-88.4364,0.61,27.8,1111122 
NERRS,ioos:station:NOAA.NERRS:gndbcwq:1,2014-12-11T04:00:00Z,30.3836,-88.4364,0.65,27.7,1111122 
NERRS,ioos:station:NOAA.NERRS:gndbcwq:1,2014-12-11T05:00:00Z,30.3836,-88.4364,0.67,27.7,1111122 
NERRS,ioos:station:NOAA.NERRS:gndbcwq:1,2014-12-11T06:00:00Z,30.3836,-88.4364,0.66,27.7,1111122 
NERRS,ioos:station:NOAA.NERRS:gndbcwq:1,2014-12-11T07:00:00Z,30.3836,-88.4364,0.62,27.8,1111122 
NERRS,ioos:station:NOAA.NERRS:gndbcwq:1,2014-12-11T08:00:00Z,30.3836,-88.4364,0.57,27.9,1111122 
NERRS,ioos:station:NOAA.NERRS:gndbcwq:1,2014-12-11T09:00:00Z,30.3836,-88.4364,0.54,28.0,1111122 
NERRS,ioos:station:NOAA.NERRS:gndbcwq:1,2014-12-11T10:00:00Z,30.3836,-88.4364,0.52,28.1,1111122 
NERRS,ioos:station:NOAA.NERRS:gndbcwq:1,2014-12-11T11:00:00Z,30.3836,-88.4364,0.45,28.2,1111122 
NERRS,ioos:station:NOAA.NERRS:gndbcwq:1,2014-12-11T12:00:00Z,30.3836,-88.4364,0.36,28.5,1111122 
NERRS,ioos:station:NOAA.NERRS:gndbcwq:1,2014-12-11T13:00:00Z,30.3836,-88.4364,0.3,28.3,1111122 
NERRS,ioos:station:NOAA.NERRS:gndbcwq:1,2014-12-11T14:00:00Z,30.3836,-88.4364,0.29,28.6,1111122 
NERRS,ioos:station:NOAA.NERRS:gndbcwq:1,2014-12-11T15:00:00Z,30.3836,-88.4364,0.31,28.6,1111122 